E7874 Weather Reports


time (UTC)temp
C
wind
direction
speed
KPH
gust
KPH
rain 1hr
cm
rain 24hr
cm
rain mn
cm
humidity
%
barometer
mb
20260508020424 12 195 0.0 0.0 0.00 0.05 0.00 78 1010.1
20260508015920 12 195 0.0 0.0 0.00 0.05 0.00 77 1010.1
20260508015423 12 195 0.0 0.0 0.00 0.05 0.00 77 1010.1
20260508015026 12 195 0.0 0.0 0.00 0.05 0.00 76 1010.2
20260508013337 12 195 0.0 0.0 0.00 0.05 0.00 76 1010.2
20260508012940 12 195 0.0 0.0 0.00 0.05 0.00 76 1010.2
20260508011913 12 195 0.0 0.0 0.00 0.05 0.00 75 1010.3
20260508010832 12 195 0.0 0.0 0.00 0.08 0.00 75 1010.4
20260508010321 12 195 0.0 0.0 0.00 0.08 0.00 75 1010.5
20260508005817 12 195 0.0 0.0 0.00 0.08 0.00 75 1010.5
20260508005305 12 195 0.0 0.0 0.00 0.08 0.00 74 1010.5
20260508004754 12 195 0.0 0.0 0.00 0.08 0.00 75 1010.5
20260508004247 12 195 0.0 0.0 0.00 0.08 0.00 75 1010.5
20260508003739 12 195 0.0 0.0 0.00 0.08 0.00 75 1010.6
20260508003230 12 195 0.0 0.0 0.00 0.10 0.00 75 1010.5
20260508002831 12 195 0.0 0.0 0.00 0.10 0.00 75 1010.6
20260508001728 13 195 0.0 0.0 0.00 0.13 0.00 73 1010.8
20260508001220 13 226 0.0 0.0 0.00 0.15 0.00 73 1010.8
20260508000723 13 225 0.0 0.0 0.00 0.15 0.00 72 1010.8
20260508000226 13 226 0.0 0.0 0.00 0.15 0.00 72 1010.8
20260507235833 13 226 0.0 0.0 0.00 0.15 0.00 72 1010.9
20260507235419 13 226 0.0 0.0 0.00 0.15 0.00 71 1011.0
20260507233724 13 226 0.0 0.0 0.00 0.18 0.00 72 1011.1
20260507232800 13 226 0.0 0.0 0.00 0.18 0.00 72 1011.1
20260507231637 13 226 0.0 0.0 0.00 0.20 0.00 71 1011.4
20260507231138 14 226 0.0 0.0 0.00 0.23 0.00 71 1011.4
20260507230634 14 226 0.0 0.0 0.00 0.25 0.00 70 1011.5
20260507230124 14 226 0.0 0.0 0.00 0.28 0.00 69 1011.4
20260507225621 14 196 0.0 0.0 0.00 0.33 0.00 69 1011.5
20260507225147 14 155 0.0 0.0 0.00 0.33 0.00 69 1011.5
20260507224112 14 155 0.0 0.0 0.00 0.36 0.00 69 1011.7
20260507223603 14 155 0.0 0.0 0.00 0.36 0.00 68 1011.7
20260507223057 14 156 0.0 0.0 0.00 0.36 0.00 67 1011.7
20260507222545 15 156 0.0 0.0 0.00 0.36 0.00 65 1011.7
20260507222130 15 156 0.0 0.0 0.00 0.36 0.00 64 1011.8
20260507221037 15 156 0.0 0.0 0.00 0.36 0.00 63 1011.9
20260507220537 15 156 0.0 0.0 0.00 0.36 0.00 63 1011.8
20260507220039 15 156 0.0 0.0 0.00 0.36 0.00 63 1011.8
20260507215533 15 156 0.0 0.0 0.00 0.36 0.36 63 1011.8
20260507215115 15 156 0.0 0.0 0.00 0.36 0.36 63 1011.8
20260507214020 15 156 0.0 0.0 0.00 0.36 0.36 62 1011.8
20260507213519 15 156 0.0 0.0 0.00 0.36 0.36 62 1011.8
20260507213016 15 156 0.0 0.0 0.00 0.36 0.36 63 1011.9
20260507212512 15 156 0.0 0.0 0.00 0.36 0.36 62 1011.9
20260507212013 15 156 0.0 0.0 0.00 0.36 0.36 63 1011.9
20260507211510 15 156 0.0 0.0 0.00 0.36 0.36 63 1011.9
20260507211009 15 156 0.0 0.0 0.00 0.36 0.36 63 1011.9
20260507210506 15 156 0.0 0.0 0.00 0.36 0.36 63 1011.9
20260507210011 15 156 0.0 0.0 0.00 0.36 0.36 63 1011.9
20260507205455 15 156 0.0 0.0 0.00 0.36 0.36 61 1011.9
20260507204955 15 156 0.0 0.0 0.00 0.36 0.36 62 1011.9
20260507204442 15 156 0.0 0.0 0.00 0.36 0.36 61 1012.0
20260507203934 15 156 0.0 0.0 0.00 0.36 0.36 61 1012.0
20260507203425 16 156 0.0 0.0 0.00 0.36 0.36 61 1012.0
20260507203014 16 156 0.0 0.0 0.00 0.36 0.36 60 1012.0
20260507201925 16 156 0.0 0.0 0.00 0.36 0.36 60 1012.1
20260507201417 16 156 0.0 0.0 0.00 0.36 0.36 59 1012.0
20260507200906 16 156 0.0 0.0 0.00 0.36 0.36 58 1012.1
20260507200402 16 156 0.0 0.0 0.00 0.36 0.36 57 1012.0
20260507195907 16 156 0.0 3.2 0.00 0.36 0.36 59 1012.0
20260507195532 16 156 1.6 4.8 0.00 0.36 0.36 60 1012.0
20260507195116 16 156 1.6 4.8 0.00 0.36 0.36 59 1012.0
20260507194058 17 156 3.2 6.4 0.00 0.36 0.36 57 1011.9
20260507192348 16 156 4.8 6.4 0.00 0.36 0.36 61 1011.9
20260507191919 17 156 4.8 6.4 0.00 0.36 0.36 61 1011.9
20260507191528 17 157 4.8 6.4 0.00 0.36 0.36 62 1011.8
20260507185837 17 174 3.2 6.4 0.00 0.36 0.36 62 1011.7
20260507185337 17 221 3.2 6.4 0.00 0.36 0.36 61 1011.7
20260507184911 18 221 3.2 4.8 0.00 0.36 0.36 59 1011.7
20260507183802 18 221 1.6 6.4 0.00 0.36 0.36 56 1011.6
20260507183342 19 310 1.6 4.8 0.00 0.36 0.36 50 1011.6
20260507182242 20 310 0.0 3.2 0.00 0.36 0.36 47 1011.7
20260507181745 20 310 0.0 1.6 0.00 0.36 0.36 47 1011.6
20260507181236 20 310 0.0 3.2 0.00 0.36 0.36 47 1011.6
20260507180816 20 310 1.6 4.8 0.00 0.36 0.36 46 1011.6
20260507175706 20 310 3.2 6.4 0.00 0.36 0.36 46 1011.6
20260507175156 21 310 3.2 6.4 0.00 0.36 0.36 46 1011.6
20260507174649 21 307 4.8 6.4 0.00 0.36 0.36 45 1011.6
20260507174138 21 308 4.8 6.4 0.00 0.36 0.36 44 1011.5
20260507173718 21 310 4.8 8.0 0.00 0.36 0.36 44 1011.6
20260507173335 21 302 4.8 8.0 0.00 0.36 0.36 44 1011.6
20260507172933 21 308 4.8 8.0 0.00 0.36 0.36 43 1011.5
20260507170616 23 310 6.4 9.7 0.00 0.36 0.36 48 1011.2
20260507170114 23 342 6.4 11.3 0.00 0.36 0.36 44 1011.2
20260507165617 24 333 6.4 11.3 0.00 0.36 0.36 43 1011.2
20260507165112 24 313 6.4 9.7 0.00 0.36 0.36 42 1011.4
20260507164707 25 323 4.8 8.0 0.00 0.36 0.36 42 1011.4
20260507163553 24 316 4.8 8.0 0.00 0.36 0.36 45 1011.4
20260507163046 24 333 6.4 12.9 0.00 0.36 0.36 47 1011.4
20260507162604 23 311 6.4 12.9 0.00 0.36 0.36 45 1011.2
20260507161558 24 344 6.4 11.3 0.00 0.36 0.36 44 1011.2
20260507160602 24 327 8.0 12.9 0.00 0.36 0.36 47 1011.4
20260507155443 25 298 6.4 11.3 0.00 0.36 0.36 43 1011.4
20260507154944 25 333 6.4 11.3 0.00 0.36 0.36 44 1011.5
20260507154439 25 323 4.8 11.3 0.00 0.36 0.36 43 1011.6
20260507153934 25 304 6.4 11.3 0.00 0.36 0.36 43 1011.6
20260507153518 25 346 4.8 11.3 0.00 0.36 0.36 45 1011.6
20260507152503 25 304 4.8 11.3 0.00 0.36 0.36 42 1011.6
20260507151353 25 333 6.4 11.3 0.00 0.36 0.36 45 1011.6
20260507150852 25 338 6.4 11.3 0.00 0.36 0.36 46 1011.6
20260507150352 25 338 6.4 11.3 0.00 0.36 0.36 46 1011.8
20260507145907 25 293 6.4 11.3 0.00 0.36 0.36 45 1011.8
20260507145502 24 342 8.0 14.5 0.00 0.36 0.36 47 1011.8
20260507144329 24 313 4.8 17.7 0.00 0.36 0.36 45 1011.8
20260507143908 24 301 8.0 16.1 0.00 0.36 0.36 46 1011.9
20260507142810 24 324 4.8 19.3 0.00 0.36 0.36 46 1012.0
20260507142310 23 294 1.6 14.5 0.00 0.36 0.36 45 1012.1
20260507141827 23 62 1.6 9.7 0.00 0.36 0.36 51 1012.2
20260507141404 23 92 3.2 9.7 0.00 0.36 0.36 45 1012.2
20260507141004 23 19 4.8 8.0 0.00 0.36 0.36 46 1012.4
20260507135339 23 340 11.3 20.9 0.00 0.36 0.36 52 1012.5
20260507134222 24 350 6.4 12.9 0.00 0.36 0.36 48 1012.7
20260507133716 23 320 4.8 11.3 0.00 0.36 0.36 49 1012.8
20260507133218 23 15 4.8 9.7 0.00 0.36 0.36 50 1012.9
20260507132716 23 345 6.4 11.3 0.00 0.36 0.36 53 1012.9
20260507132208 23 346 6.4 11.3 0.00 0.36 0.36 53 1013.0
20260507131711 23 316 6.4 12.9 0.00 0.36 0.36 51 1013.1
20260507131205 23 302 4.8 12.9 0.00 0.36 0.36 47 1013.1
20260507130656 23 286 6.4 11.3 0.00 0.36 0.36 50 1013.1
20260507130146 23 324 6.4 11.3 0.00 0.36 0.36 53 1013.1
20260507125639 23 313 4.8 11.3 0.00 0.36 0.36 54 1013.3
20260507125140 23 299 3.2 8.0 0.00 0.36 0.36 51 1013.2
20260507124634 23 297 4.8 9.7 0.00 0.36 0.36 51 1013.3
20260507124134 23 296 4.8 11.3 0.00 0.36 0.36 52 1013.3
20260507123636 23 296 4.8 11.3 0.00 0.36 0.36 52 1013.3
20260507123132 22 333 4.8 11.3 0.00 0.36 0.36 53 1013.5
20260507122634 22 306 1.6 11.3 0.00 0.36 0.36 53 1013.4
20260507122242 22 257 0.0 0.0 0.00 0.36 0.36 54 1013.3
20260507121128 22 331 0.0 0.0 0.00 0.36 0.36 54 1013.3
20260507120629 22 331 0.0 0.0 0.00 0.36 0.36 56 1013.3
20260507120129 22 279 0.0 0.0 0.00 0.36 0.36 55 1013.4
20260507115628 22 351 0.0 0.0 0.00 0.36 0.36 54 1013.4
20260507115240 21 13 0.0 0.0 0.00 0.36 0.36 57 1013.4
20260507114128 21 313 0.0 0.0 0.00 0.36 0.36 59 1013.4
20260507113613 21 317 0.0 0.0 0.00 0.36 0.36 57 1013.5
20260507113114 21 305 0.0 0.0 0.00 0.36 0.36 57 1013.5
20260507112614 21 348 0.0 0.0 0.00 0.36 0.36 60 1013.5
20260507112114 21 321 0.0 0.0 0.00 0.36 0.36 58 1013.5
20260507111615 21 321 0.0 0.0 0.00 0.36 0.36 54 1013.4
20260507111113 22 325 0.0 0.0 0.00 0.36 0.36 57 1013.5
20260507110609 22 329 0.0 0.0 0.00 0.36 0.36 57 1013.6
20260507105604 22 303 0.0 0.0 0.00 0.36 0.36 60 1013.5
20260507105101 22 295 0.0 0.0 0.00 0.36 0.36 56 1013.6
20260507104551 22 323 0.0 0.0 0.00 0.36 0.36 58 1013.6
20260507104052 22 292 0.0 0.0 0.00 0.36 0.36 57 1013.7
20260507103551 22 342 0.0 0.0 0.00 0.36 0.36 60 1013.7
20260507103048 22 338 0.0 0.0 0.00 0.36 0.36 62 1013.8
20260507102550 22 330 0.0 0.0 0.00 0.36 0.36 59 1013.8
20260507102048 22 292 0.0 0.0 0.00 0.36 0.36 55 1013.9
20260507101545 22 292 0.0 0.0 0.00 0.36 0.36 59 1013.9
20260507101040 22 282 0.0 0.0 0.00 0.36 0.36 61 1014.0
20260507100530 22 282 0.0 0.0 0.00 0.36 0.36 60 1014.1
20260507100020 21 244 0.0 0.0 0.00 0.36 0.36 62 1014.1
20260507095519 21 290 0.0 0.0 0.00 0.36 0.36 62 1014.0
20260507095016 21 273 0.0 0.0 0.00 0.36 0.36 64 1014.0
20260507094515 21 292 0.0 0.0 0.00 0.36 0.36 65 1014.0
20260507094014 21 292 0.0 0.0 0.00 0.36 0.36 66 1014.0
20260507093518 21 287 0.0 0.0 0.00 0.36 0.36 66 1014.0
20260507093011 20 287 0.0 0.0 0.00 0.36 0.36 67 1014.0
20260507092513 20 286 0.0 0.0 0.00 0.36 0.36 69 1014.0
20260507092017 20 286 0.0 0.0 0.00 0.36 0.36 67 1014.1
20260507091623 20 277 0.0 0.0 0.00 0.36 0.36 69 1014.0
20260507090456 20 277 0.0 0.0 0.00 0.36 0.36 70 1014.0
20260507085951 19 280 0.0 0.0 0.00 0.36 0.36 72 1014.1
20260507085506 19 308 0.0 0.0 0.00 0.36 0.36 73 1014.2
20260507085121 18 316 1.6 6.4 0.00 0.36 0.36 75 1014.3
20260507084739 18 316 3.2 6.4 0.00 0.36 0.36 74 1014.3
20260507082528 18 316 6.4 9.7 0.00 0.36 0.36 75 1014.5
20260507081428 18 301 4.8 14.5 0.00 0.36 0.36 75 1014.4
20260507080931 18 340 1.6 14.5 0.00 0.36 0.36 76 1014.3
20260507080416 18 344 0.0 0.0 0.00 0.36 0.36 79 1014.3
20260507075913 18 331 0.0 0.0 0.00 0.36 0.36 79 1014.2
20260507075415 18 11 0.0 0.0 0.00 0.36 0.36 79 1014.2
20260507074905 18 11 0.0 0.0 0.00 0.36 0.36 78 1014.3
20260507074407 17 11 0.0 0.0 0.00 0.36 0.36 80 1014.3
20260507073904 17 11 0.0 0.0 0.00 0.36 0.36 80 1014.3
20260507073406 17 11 0.0 0.0 0.00 0.36 0.36 84 1014.3
20260507072903 16 11 0.0 0.0 0.00 0.36 0.36 82 1014.3
20260507072354 16 10 0.0 0.0 0.00 0.36 0.36 83 1014.4
20260507071856 16 10 0.0 0.0 0.00 0.36 0.36 86 1014.4
20260507071352 16 9 0.0 0.0 0.00 0.36 0.36 85 1014.4
20260507070843 16 9 0.0 0.0 0.00 0.36 0.36 85 1014.4
20260507070347 16 9 0.0 0.0 0.00 0.36 0.36 87 1014.4
20260507065840 15 11 0.0 0.0 0.00 0.36 0.36 86 1014.3
20260507065341 15 11 0.0 0.0 0.00 0.36 0.36 87 1014.3
20260507064842 15 11 0.0 0.0 0.00 0.36 0.36 88 1014.3
20260507064339 15 11 0.0 0.0 0.00 0.36 0.36 88 1014.3
20260507063838 15 11 0.0 0.0 0.00 0.36 0.36 89 1014.3
20260507063325 15 11 0.0 0.0 0.00 0.36 0.36 89 1014.3
20260507062822 15 11 0.0 0.0 0.00 0.36 0.36 89 1014.2
20260507062317 15 11 0.0 0.0 0.00 0.36 0.36 90 1014.1
20260507061817 15 11 0.0 0.0 0.00 0.36 0.36 90 1014.1
20260507061318 15 11 0.0 0.0 0.00 0.36 0.36 90 1014.2
20260507060815 14 11 0.0 0.0 0.00 0.36 0.36 90 1014.0
20260507060425 14 11 0.0 0.0 0.00 0.36 0.36 90 1014.0
20260507054735 14 11 0.0 0.0 0.00 0.36 0.36 92 1013.9
20260507054226 14 11 0.0 0.0 0.00 0.36 0.36 93 1013.9
20260507053758 13 11 0.0 0.0 0.00 0.36 0.36 94 1013.9
20260507052703 13 63 0.0 0.0 0.00 0.36 0.36 94 1013.7
20260507052150 13 63 0.0 0.0 0.00 0.36 0.36 94 1013.7
20260507051645 12 122 0.0 0.0 0.00 0.36 0.36 93 1013.7
20260507051133 12 123 0.0 0.0 0.00 0.36 0.36 93 1013.7
20260507050628 12 138 0.0 0.0 0.00 0.36 0.36 94 1013.8
20260507050118 12 138 0.0 0.0 0.00 0.36 0.36 94 1013.8
20260507045716 12 138 0.0 0.0 0.00 0.36 0.36 94 1013.8
20260507044553 12 138 0.0 0.0 0.00 0.36 0.36 93 1013.7
20260507044142 12 138 0.0 0.0 0.00 0.36 0.36 93 1013.6
20260507043758 12 139 0.0 0.0 0.00 0.36 0.36 93 1013.6
20260507042126 12 139 0.0 0.0 0.00 0.36 0.36 93 1013.5
20260507041019 12 139 0.0 0.0 0.00 0.36 0.36 93 1013.5
20260507040516 12 138 0.0 0.0 0.00 0.36 0.36 93 1013.5
20260507040015 12 138 0.0 0.0 0.00 0.36 0.36 93 1013.4
20260507035524 12 138 0.0 0.0 0.00 0.36 0.36 93 1013.5
20260507035107 12 138 0.0 0.0 0.00 0.36 0.36 93 1013.4
20260507034004 12 138 0.0 0.0 0.03 0.36 0.36 92 1013.4
20260507033503 12 138 0.0 0.0 0.05 0.36 0.36 92 1013.5
20260507033056 12 138 0.0 0.0 0.05 0.36 0.36 92 1013.5
20260507031959 12 138 0.0 0.0 0.05 0.36 0.36 93 1013.4
20260507031458 12 138 0.0 0.0 0.05 0.36 0.36 93 1013.4
20260507030957 12 138 0.0 0.0 0.05 0.36 0.36 93 1013.5
20260507030439 12 138 0.0 0.0 0.05 0.36 0.36 92 1013.5
20260507030033 12 139 0.0 0.0 0.05 0.36 0.36 92 1013.4
20260507024933 12 138 0.0 0.0 0.05 0.36 0.36 92 1013.4
20260507024430 12 139 0.0 0.0 0.05 0.33 0.33 91 1013.4
20260507023927 12 139 0.0 0.0 0.05 0.33 0.33 91 1013.4
20260507023430 13 139 0.0 0.0 0.03 0.33 0.33 91 1013.4
20260507022925 13 139 0.0 0.0 0.03 0.33 0.33 91 1013.4
20260507022424 13 138 0.0 0.0 0.03 0.33 0.33 91 1013.4
20260507021924 13 139 0.0 0.0 0.00 0.30 0.30 91 1013.3
20260507021510 13 139 0.0 0.0 0.00 0.30 0.30 91 1013.4